Location: Castillon
(43.0896°N, 0.2156°E)
Time: 20:42:30
(UTC+00:00)

Cosmos 1726 - Pass Details

Date: 16 June 2021
Orbit: 480 x 496 km, 82.5° (Epoch: 23 July)

Event Time Altitude Azimuth Distance (km) Brightness Sun altitude
Rises 20:36:23 0° 352° (N) 2,550 6.6 -8.7°
Reaches altitude 10° 20:38:29 10° 353° (N) 1,665 5.6 -9.0°
Maximum altitude 20:42:08 83° 82° (E) 490 2.0 -9.5°
Drops below altitude 10° 20:45:45 10° 171° (S) 1,654 4.3 -9.9°
Enters shadow 20:45:52 - 171° (S) 1,705 4.3 -10.0°
